User: anonymous   Login
Location: Bakov nad Jizerou
(50.4784°N, 14.9394°E)
Time: 09:51:03
(UTC+00:00)
Language:

Cosmos 1025 Rocket - Orbit

View from above orbital plane
View from above orbital plane
View from above satellite
View from above satellite

Ground track
Ground track

The orbit data is extracted from the following two-line orbital elements,

1 10974U 78067B   21265.69010005  .00000117  00000-0  10219-4 0  9992
2 10974  82.4813 132.9981 0016442 214.2212 145.7947 14.87415653318084
Epoch (UTC): 22 September 2021 16:33:44
Eccentricity: 0.0016442
inclination: 82.4813°
perigee height: 594 km
apogee height: 617 km
right ascension of ascending node: 132.9981°
argument of perigee: 214.2212°
revolutions per day: 14.87415653
mean anomaly at epoch: 145.7947°
orbit number at epoch: 31808

The dashed part of the orbit path shows where the satellite is in the earth's shadow,  

DLR